Regional Weather Roundup
Issued by NWS

Home | Current Version | Previous Version | Text Only | Print | Product List | Glossary Off
Versions: 1 2 3 4 5 6 7 8 9 10 11 12 13 14 15 16 17 18 19 20 21 22 23 24 25 26 27 28 29 30 31 32 33 34 35 36 37 38 39 40 41 42 43 44 45 46 47 48 49 50

000
ASUS44 KMEG 021810
RWRTN
TENNESSEE HOURLY STATE WEATHER ROUNDUP
NATIONAL WEATHER SERVICE MEMPHIS TN
1200 PM CST MON MAR 02 2015

TNZ002-004-019-021-049-052-054-088>092-021900-
WEST TENNESSEE

CITY           SKY/WX    TMP DP  RH WIND       PRES   REMARKS
MEMPHIS INTL   CLOUDY    41  30  65 NE8       30.41F
NWS MEMPHIS      N/A     40 N/A N/A MISG        N/A
JACKSON        MOSUNNY   44  30  57 NE10      30.42F
DYERSBURG      CLOUDY    37  18  44 NE15      30.47F WCI  28
UNION CITY     SUNNY     37  25  60 NE8       30.46F WCI  31
PARIS          SUNNY     37  21  52 E13       30.45F WCI  29
LEXINGTON      SUNNY     43  27  52 NE10      30.41F
SAVANNAH       CLOUDY    45  34  65 E9        30.41F
$$

TNZ008-025-027-028-033-062-065-066-021900-
NORTH MIDDLE TENNESSEE

CITY           SKY/WX    TMP DP  RH WIND       PRES   REMARKS
NASHVILLE      PTSUNNY   43  29  57 E5        30.45F
CLARKSVILLE    SUNNY     38  24  57 NE7       30.47F WCI  33
SMYRNA         MOSUNNY   43  32  65 VRB7      30.46F
COOKEVILLE     CLOUDY    37  34  87 NE7       30.40F WCI  32
CROSSVILLE     CLOUDY    37  32  82 NE9       30.38F WCI  30
$$

TNZ061-075-076-078-094-096-097-021900-
SOUTH MIDDLE TENNESSEE

CITY           SKY/WX    TMP DP  RH WIND       PRES   REMARKS
FAYETTEVILLE   CLOUDY    37  36  93 NE13        N/A  WCI  29
TULLAHOMA      CLOUDY    37  34  87 N9        30.41F WCI  31
WINCHESTER     CLOUDY    41  37  87 N8        30.40F
MCMINNVILLE    CLOUDY    37  37 100 NE9       30.41F WCI  31
COLUMBIA         N/A     43  41  93 NE13      30.41F
SHELBYVILLE    CLOUDY    37  36  93 NE9       30.44F WCI  31
$$

TNZ017-018-042-046-047-021900-
NORTHEAST TENNESSEE

CITY           SKY/WX    TMP DP  RH WIND       PRES   REMARKS
TRI CITIES     PTSUNNY   42  33  70 N8        30.39S
ELIZABETHTON   CLOUDY    39  34  81 NW6       30.37S WCI  35
$$

TNZ012-013-036-069-073-074-021900-
CENTRAL EAST TENNESSEE

CITY           SKY/WX    TMP DP  RH WIND       PRES   REMARKS
KNOXVILLE      CLOUDY    44  36  73 N9        30.40F
OAK RIDGE      MOSUNNY   43  34  70 VRB7      30.44S
GATLINBURG     CLOUDY    39  37  93 NW5       30.39F
MORRISTOWN     MOCLDY    41  37  87 N8        30.39F
$$

TNZ083-085-099-021900-
SOUTHEAST TENNESSEE

CITY           SKY/WX    TMP DP  RH WIND       PRES   REMARKS
CHATTANOOGA    CLOUDY    50  39  66 N12       30.38F
$$

SKY/WX REPORTED AS FAIR MEANS FEW OR NO CLOUDS BELOW
12 THOUSAND FEET.




USA.gov is the U.S. government's official web portal to all federal, state and local government web resources and services.